RELEVES METEO NEUVILLE
Donnes mto: Actuelle jeudi, 22/04/2021 04:45
Date Horaire Temp. E. Hum. E. P.atmo. Pluie Vent Direction Direction P. de rose Temp au vent Rafales
22/04/2021 04:45 3,8 C 85 % 1022,6 hPa 0,0 mm 7,5 km/h (2 Bft) NE 50 1,5 C 2,8 C 12,9 km/h (3 Bft)
22/04/2021 04:40 3,8 C 85 % 1022,6 hPa 0,0 mm 6,5 km/h (2 Bft) NE 47 1,5 C 3,7 C 12,9 km/h (3 Bft)
22/04/2021 04:35 3,8 C 85 % 1022,5 hPa 0,0 mm 7,0 km/h (2 Bft) N-NE 28 1,5 C 3,3 C 11,3 km/h (2 Bft)
22/04/2021 04:30 3,8 C 85 % 1022,5 hPa 0,0 mm 6,6 km/h (2 Bft) NE 49 1,5 C 3,6 C 11,3 km/h (2 Bft)
22/04/2021 04:25 3,8 C 85 % 1022,4 hPa 0,0 mm 6,4 km/h (2 Bft) NE 51 1,5 C 3,8 C 11,3 km/h (2 Bft)
22/04/2021 04:20 3,8 C 85 % 1022,4 hPa 0,0 mm 4,9 km/h (1 Bft) NE 51 1,5 C 3,8 C 9,7 km/h (2 Bft)
22/04/2021 04:15 3,9 C 85 % 1022,3 hPa 0,0 mm 4,8 km/h (1 Bft) NE 51 1,6 C 3,9 C 11,3 km/h (2 Bft)
22/04/2021 04:10 3,9 C 85 % 1022,2 hPa 0,0 mm 4,7 km/h (1 Bft) NE 51 1,6 C 3,9 C 9,7 km/h (2 Bft)
22/04/2021 04:05 4,0 C 84 % 1022,2 hPa 0,0 mm 4,8 km/h (1 Bft) NE 47 1,5 C 4,0 C 9,7 km/h (2 Bft)
22/04/2021 04:00 4,1 C 84 % 1022,1 hPa 0,0 mm 4,0 km/h (1 Bft) NE 51 1,6 C 4,1 C 8,0 km/h (2 Bft)
22/04/2021 03:55 4,2 C 84 % 1022,1 hPa 0,0 mm 4,0 km/h (1 Bft) NE 50 1,7 C 4,2 C 8,0 km/h (2 Bft)
22/04/2021 03:50 4,2 C 84 % 1022,1 hPa 0,0 mm 4,2 km/h (1 Bft) NE 49 1,7 C 4,2 C 9,7 km/h (2 Bft)
22/04/2021 03:45 4,3 C 84 % 1022,1 hPa 0,0 mm 5,5 km/h (1 Bft) NE 49 1,8 C 4,3 C 9,7 km/h (2 Bft)
22/04/2021 03:40 4,3 C 83 % 1022,1 hPa 0,0 mm 4,1 km/h (1 Bft) NE 53 1,7 C 4,3 C 8,0 km/h (2 Bft)
22/04/2021 03:35 4,4 C 83 % 1022,2 hPa 0,0 mm 5,1 km/h (1 Bft) NE 55 1,8 C 4,4 C 9,7 km/h (2 Bft)
22/04/2021 03:30 4,3 C 83 % 1022,1 hPa 0,0 mm 4,3 km/h (1 Bft) N-NE 22 1,7 C 4,3 C 9,7 km/h (2 Bft)
22/04/2021 03:25 4,4 C 84 % 1022,1 hPa 0,0 mm 4,1 km/h (1 Bft) NE 34 1,9 C 4,4 C 11,3 km/h (2 Bft)
22/04/2021 03:20 4,5 C 83 % 1022,0 hPa 0,0 mm 3,4 km/h (1 Bft) NE 42 1,9 C 4,5 C 8,0 km/h (2 Bft)
22/04/2021 03:15 4,6 C 83 % 1022,0 hPa 0,0 mm 4,3 km/h (1 Bft) NE 42 2,0 C 4,6 C 8,0 km/h (2 Bft)
22/04/2021 03:10 4,8 C 82 % 1021,9 hPa 0,0 mm 6,3 km/h (2 Bft) NE 42 2,0 C 4,8 C 9,7 km/h (2 Bft)
22/04/2021 03:05 4,8 C 83 % 1021,9 hPa 0,0 mm 5,3 km/h (1 Bft) NE 45 2,2 C 4,8 C 11,3 km/h (2 Bft)
_ Min-Heure 04:20 02:50 00:00 - 02:00 - - 04:20 04:45 02:00
Minimum _ 3,8 C 82 % 1020,9 hPa - 1,9 km/h (1 Bft) - - 1,5 C 2,8 C 6,4 km/h (2 Bft)
_ Max-Heure 00:00 00:30 04:40 00:00 04:45 - - 00:05 00:00 01:00
Maximum _ 6,4 C 86 % 1022,6 hPa 0,0 mm 7,5 km/h
NE (2 Bft)
- - 4,0 C 6,3 C 12,9 km/h
N-NE (3 Bft)
Moyenne _ 5,0 C 84 % 1021,7 hPa #0,0 mm 4,9 km/h (1 Bft) NE - 2,6 C 4,9 C 10,2 km/h (2 Bft)
NEUVILLE ST REMY